THY5RM LTFM-GMMN

Flight info

Callsign THY5RM
Flight time 4h 47m
Altitude 38000
Route BARPE1D/35L BARPE UM603 TSL UM600 KRK DCT BEDEX DCT EKVIS DCT LATAN DCT TUPAL UG728 CBN DCT TUC UA411 FES UR975 SADIC
Aircraft A333/H-SDE3GHIJ2J3J5M1RVWXY/LB2D1

Departure

Time 2026-05-06 17:43
Airport İstanbul Airport (LTFM)

Arrival

Time 2026-05-06 22:30
Airport Mohammed V International Airport (GMMN)
Time Latitude Longitude Altitude Speed Heading
2026-05-06 17:19 41.26770 28.73534 338 ft 0 kts 180°
2026-05-06 17:31 41.26773 28.73534 338 ft 0 kts 179°
2026-05-06 17:31 41.26775 28.73534 338 ft 0 kts 179°
2026-05-06 17:31 41.26776 28.73534 338 ft 0 kts 179°
2026-05-06 17:32 41.26778 28.73534 338 ft 0 kts 179°
2026-05-06 17:32 41.26780 28.73534 338 ft 0 kts 179°
2026-05-06 17:32 41.26782 28.73534 338 ft 0 kts 179°
2026-05-06 17:32 41.26784 28.73534 338 ft 0 kts 180°
2026-05-06 17:33 41.26785 28.73534 338 ft 0 kts 180°
2026-05-06 17:33 41.26793 28.73534 338 ft 2 kts 186°
2026-05-06 17:33 41.26808 28.73538 338 ft 2 kts 200°
2026-05-06 17:33 41.26822 28.73546 338 ft 2 kts 211°
2026-05-06 17:34 41.26834 28.73557 338 ft 2 kts 222°
2026-05-06 17:34 41.26845 28.73571 338 ft 2 kts 233°
2026-05-06 17:34 41.26853 28.73588 338 ft 2 kts 244°
2026-05-06 17:34 41.26859 28.73606 338 ft 2 kts 255°
2026-05-06 17:35 41.26862 28.73626 338 ft 2 kts 266°
2026-05-06 17:35 41.26862 28.73633 338 ft 0 kts 269°
2026-05-06 17:37 41.26862 28.73632 338 ft 0 kts 269°
2026-05-06 17:37 41.26862 28.73619 338 ft 2 kts 269°
2026-05-06 17:38 41.26862 28.73572 338 ft 7 kts 269°
2026-05-06 17:38 41.26860 28.73474 338 ft 13 kts 269°
2026-05-06 17:38 41.26859 28.73331 338 ft 16 kts 269°
2026-05-06 17:38 41.26857 28.73181 338 ft 16 kts 269°
2026-05-06 17:39 41.26850 28.73038 338 ft 14 kts 252°
2026-05-06 17:39 41.26767 28.72992 338 ft 12 kts 184°
2026-05-06 17:39 41.26726 28.72971 338 ft 0 kts 227°
2026-05-06 17:40 41.26711 28.72923 338 ft 13 kts 259°
2026-05-06 17:41 41.26704 28.72740 338 ft 22 kts 269°
2026-05-06 17:41 41.26702 28.72574 338 ft 12 kts 277°
2026-05-06 17:41 41.26756 28.72513 338 ft 10 kts 349°
2026-05-06 17:41 41.26825 28.72509 338 ft 10 kts 360°
2026-05-06 17:42 41.27010 28.72508 338 ft 53 kts 359°
2026-05-06 17:42 41.27614 28.72498 339 ft 117 kts 359°
2026-05-06 17:42 41.28627 28.72474 352 ft 168 kts
2026-05-06 17:42 41.29849 28.72458 912 ft 173 kts
2026-05-06 17:43 41.30989 28.72428 1729 ft 165 kts
2026-05-06 17:43 41.32108 28.72492 2486 ft 162 kts
2026-05-06 17:43 41.33241 28.72517 3215 ft 168 kts 360°
2026-05-06 17:43 41.34407 28.72527 4171 ft 175 kts 359°
2026-05-06 17:44 41.35605 28.72531 5250 ft 177 kts 359°
2026-05-06 17:44 41.36795 28.72521 6314 ft 170 kts 355°
2026-05-06 17:44 41.37891 28.71887 6566 ft 182 kts 317°
2026-05-06 17:44 41.38456 28.70297 6742 ft 208 kts 281°
2026-05-06 17:45 41.38318 28.68250 6965 ft 234 kts 269°
2026-05-06 17:45 41.38201 28.66011 7321 ft 251 kts 272°
2026-05-06 17:45 41.38142 28.63601 7719 ft 269 kts 273°
2026-05-06 17:45 41.38101 28.61066 8333 ft 278 kts 273°
2026-05-06 17:46 41.37839 28.58503 9027 ft 289 kts 254°
2026-05-06 17:46 41.36724 28.56208 9751 ft 302 kts 227°
2026-05-06 17:46 41.34936 28.54722 10412 ft 314 kts 202°
2026-05-06 17:46 41.32695 28.54248 10737 ft 335 kts 178°
2026-05-06 17:47 41.30358 28.54872 11030 ft 353 kts 167°
2026-05-06 17:47 41.27845 28.55188 11279 ft 372 kts 179°
2026-05-06 17:47 41.25181 28.55163 11631 ft 387 kts 188°
2026-05-06 17:47 41.22573 28.54152 12270 ft 390 kts 204°
2026-05-06 17:48 41.20037 28.52861 12958 ft 394 kts 203°
2026-05-06 17:48 41.17549 28.51298 13579 ft 395 kts 217°
2026-05-06 17:48 41.15575 28.48812 14219 ft 390 kts 235°
2026-05-06 17:48 41.13924 28.45953 14943 ft 391 kts 240°
2026-05-06 17:49 41.12801 28.42699 15497 ft 387 kts 260°
2026-05-06 17:49 41.12536 28.39179 16145 ft 382 kts 272°
2026-05-06 17:49 41.12266 28.35667 16766 ft 388 kts 267°
2026-05-06 17:49 41.11907 28.32088 17304 ft 393 kts 266°
2026-05-06 17:50 41.11527 28.28456 17912 ft 396 kts 266°
2026-05-06 17:50 41.11145 28.24842 18564 ft 396 kts 266°
2026-05-06 17:50 41.10762 28.21202 18969 ft 403 kts 266°
2026-05-06 17:50 41.10368 28.17498 19562 ft 405 kts 266°
2026-05-06 17:51 41.09976 28.13819 20094 ft 407 kts 267°
2026-05-06 17:51 41.09573 28.10067 20621 ft 410 kts 267°
2026-05-06 17:51 41.09172 28.06320 21124 ft 412 kts 267°
2026-05-06 17:51 41.08762 28.02491 21605 ft 415 kts 267°
2026-05-06 17:52 41.08351 27.98697 22069 ft 418 kts 267°
2026-05-06 17:52 41.07938 27.94872 22571 ft 419 kts 267°
2026-05-06 17:52 41.07525 27.91064 22988 ft 422 kts 267°
2026-05-06 17:52 41.07102 27.87174 23393 ft 426 kts 267°
2026-05-06 17:53 41.06674 27.83252 23810 ft 429 kts 267°
2026-05-06 17:53 41.06241 27.79303 24209 ft 433 kts 267°
2026-05-06 17:53 41.05804 27.75344 24749 ft 432 kts 267°
2026-05-06 17:53 41.05371 27.71408 25150 ft 435 kts 267°
2026-05-06 17:54 41.04932 27.67430 25457 ft 440 kts 267°
2026-05-06 17:54 41.04477 27.63352 25930 ft 440 kts 267°
2026-05-06 17:54 41.04034 27.59370 26405 ft 441 kts 267°
2026-05-06 17:54 41.03581 27.55313 26800 ft 443 kts 268°
2026-05-06 17:55 41.03124 27.51246 27213 ft 445 kts 268°
2026-05-06 17:55 41.02671 27.47209 27676 ft 446 kts 268°
2026-05-06 17:55 41.02210 27.43113 27949 ft 450 kts 268°
2026-05-06 17:55 41.01745 27.39008 28287 ft 453 kts 267°
2026-05-06 17:56 41.01270 27.34840 28717 ft 453 kts 267°
2026-05-06 17:56 41.00798 27.30704 29090 ft 455 kts 267°
2026-05-06 17:56 41.00323 27.26534 29336 ft 459 kts 267°
2026-05-06 17:56 40.99840 27.22352 29821 ft 456 kts 267°
2026-05-06 17:57 40.99362 27.18180 30350 ft 454 kts 268°
2026-05-06 17:57 40.98882 27.14028 30689 ft 455 kts 267°
2026-05-06 17:57 40.98397 27.09839 31174 ft 453 kts 268°
2026-05-06 17:57 40.97915 27.05697 31583 ft 452 kts 268°
2026-05-06 17:58 40.97434 27.01568 32036 ft 450 kts 268°
2026-05-06 17:58 40.96948 26.97412 32522 ft 448 kts 268°
2026-05-06 17:58 40.96471 26.93338 32891 ft 447 kts 268°
2026-05-06 17:58 40.95990 26.89259 33341 ft 445 kts 268°
2026-05-06 17:59 40.95512 26.85208 33690 ft 445 kts 268°
2026-05-06 17:59 40.95033 26.81143 34083 ft 443 kts 268°
2026-05-06 17:59 40.94556 26.77150 34422 ft 443 kts 268°
2026-05-06 17:59 40.94072 26.73080 34702 ft 443 kts 268°
2026-05-06 18:00 40.93589 26.69030 35030 ft 443 kts 267°
2026-05-06 18:00 40.93100 26.64972 35252 ft 443 kts 267°
2026-05-06 18:00 40.92619 26.60947 35577 ft 442 kts 266°
2026-05-06 18:00 40.92132 26.56919 35828 ft 442 kts 266°
2026-05-06 18:01 40.91643 26.52885 36049 ft 442 kts 266°
2026-05-06 18:01 40.91154 26.48874 36261 ft 443 kts 266°
2026-05-06 18:01 40.90669 26.44864 36595 ft 442 kts 266°
2026-05-06 18:01 40.90173 26.40823 36891 ft 441 kts 266°
2026-05-06 18:02 40.89683 26.36818 37089 ft 442 kts 266°
2026-05-06 18:02 40.89192 26.32808 37360 ft 442 kts 265°
2026-05-06 18:02 40.88694 26.28775 37602 ft 441 kts 265°
2026-05-06 18:02 40.88203 26.24785 37854 ft 440 kts 265°
2026-05-06 18:03 40.87814 26.20772 38018 ft 439 kts 267°
2026-05-06 18:03 40.87433 26.16750 38052 ft 443 kts 267°
2026-05-06 18:03 40.87048 26.12703 38167 ft 448 kts 267°
2026-05-06 18:03 40.86648 26.08585 37904 ft 449 kts 267°
2026-05-06 18:04 40.86252 26.04483 38130 ft 449 kts 267°
2026-05-06 18:04 40.85851 26.00368 37850 ft 453 kts 267°
2026-05-06 18:04 40.85448 25.96266 38162 ft 447 kts 267°
2026-05-06 18:04 40.84984 25.92173 37924 ft 453 kts 265°
2026-05-06 18:05 40.83987 25.84037 38044 ft 446 kts 265°
2026-05-06 18:05 40.83001 25.75920 38006 ft 448 kts 265°
2026-05-06 18:06 40.82005 25.67782 38038 ft 443 kts 265°
2026-05-06 18:06 40.81019 25.59775 38024 ft 446 kts 265°
2026-05-06 18:07 40.80012 25.51646 38064 ft 447 kts 265°
2026-05-06 18:07 40.79005 25.43566 38035 ft 446 kts 265°
2026-05-06 18:08 40.77994 25.35500 38027 ft 446 kts 265°
2026-05-06 18:08 40.76973 25.27409 37997 ft 446 kts 264°
2026-05-06 18:09 40.76462 25.23372 38100 ft 446 kts 264°
2026-05-06 18:09 40.75952 25.19352 38018 ft 446 kts 264°
2026-05-06 18:09 40.74926 25.11321 38044 ft 444 kts 264°
2026-05-06 18:10 40.73895 25.03293 38013 ft 443 kts 264°
2026-05-06 18:10 40.72856 24.95258 38025 ft 444 kts 264°
2026-05-06 18:11 40.71811 24.87218 38029 ft 443 kts 264°
2026-05-06 18:11 40.70765 24.79229 38051 ft 443 kts 264°
2026-05-06 18:12 40.69714 24.71224 38018 ft 443 kts 264°
2026-05-06 18:12 40.68660 24.63241 38009 ft 443 kts 264°
2026-05-06 18:13 40.67598 24.55231 38015 ft 443 kts 264°
2026-05-06 18:13 40.66526 24.47218 38025 ft 442 kts 264°
2026-05-06 18:14 40.65455 24.39242 38032 ft 442 kts 264°
2026-05-06 18:14 40.64381 24.31288 38044 ft 441 kts 263°
2026-05-06 18:15 40.63296 24.23292 38035 ft 441 kts 263°
2026-05-06 18:15 40.62224 24.15403 38034 ft 441 kts 263°
2026-05-06 18:16 40.61674 24.11382 38262 ft 441 kts 263°
2026-05-06 18:16 40.61129 24.07408 37929 ft 441 kts 263°
2026-05-06 18:16 40.60589 24.03486 38117 ft 432 kts 263°
2026-05-06 18:16 40.60051 23.99574 38014 ft 438 kts 263°
2026-05-06 18:17 40.58960 23.91698 38059 ft 440 kts 263°
2026-05-06 18:17 40.57854 23.83771 38040 ft 440 kts 263°
2026-05-06 18:18 40.56742 23.75837 38035 ft 438 kts 263°
2026-05-06 18:18 40.55630 23.67934 38038 ft 438 kts 263°
2026-05-06 18:19 40.54517 23.60078 38047 ft 438 kts 263°
2026-05-06 18:19 40.53400 23.52224 38053 ft 438 kts 263°
2026-05-06 18:20 40.52273 23.44357 38062 ft 437 kts 263°
2026-05-06 18:20 40.51143 23.36504 38064 ft 437 kts 263°
2026-05-06 18:21 40.49998 23.28598 38025 ft 438 kts 262°
2026-05-06 18:21 40.48857 23.20751 38048 ft 437 kts 262°
2026-05-06 18:22 40.47703 23.12859 38038 ft 437 kts 262°
2026-05-06 18:22 40.46549 23.05000 38028 ft 437 kts 262°
2026-05-06 18:23 40.45128 22.97206 38014 ft 442 kts 251°
2026-05-06 18:23 40.42589 22.89853 38009 ft 444 kts 250°
2026-05-06 18:24 40.40083 22.82428 38017 ft 443 kts 250°
2026-05-06 18:24 40.37587 22.75027 38018 ft 443 kts 250°
2026-05-06 18:25 40.35096 22.67656 38032 ft 442 kts 250°
2026-05-06 18:25 40.32605 22.60302 38028 ft 442 kts 250°
2026-05-06 18:26 40.30081 22.52944 38025 ft 443 kts 249°
2026-05-06 18:26 40.27565 22.45525 38030 ft 443 kts 250°
2026-05-06 18:27 40.25076 22.38130 38054 ft 443 kts 250°
2026-05-06 18:27 40.22596 22.30782 38077 ft 442 kts 249°
2026-05-06 18:28 40.20094 22.23387 38102 ft 442 kts 249°
2026-05-06 18:28 40.17603 22.16046 38088 ft 442 kts 249°
2026-05-06 18:29 40.15104 22.08699 38069 ft 441 kts 249°
2026-05-06 18:29 40.12609 22.01381 38055 ft 442 kts 249°
2026-05-06 18:30 40.10037 21.94034 38074 ft 443 kts 249°
2026-05-06 18:30 40.07457 21.86742 38060 ft 442 kts 249°
2026-05-06 18:31 40.04874 21.79448 38082 ft 442 kts 249°
2026-05-06 18:31 40.02281 21.72149 38094 ft 442 kts 249°
2026-05-06 18:32 39.99693 21.64887 38103 ft 441 kts 249°
2026-05-06 18:32 39.97096 21.57614 38111 ft 442 kts 249°
2026-05-06 18:33 39.94499 21.50314 38100 ft 441 kts 249°
2026-05-06 18:33 39.91909 21.43030 38115 ft 442 kts 249°
2026-05-06 18:34 39.89306 21.35729 38117 ft 442 kts 249°
2026-05-06 18:34 39.86725 21.28505 38134 ft 442 kts 248°
2026-05-06 18:35 39.84112 21.21211 37995 ft 439 kts 248°
2026-05-06 18:35 39.81513 21.13975 38037 ft 446 kts 248°
2026-05-06 18:36 39.80209 21.10356 38217 ft 441 kts 248°
2026-05-06 18:36 39.78897 21.06709 37933 ft 441 kts 248°
2026-05-06 18:36 39.77598 21.03111 38218 ft 440 kts 248°
2026-05-06 18:36 39.76272 20.99436 38147 ft 449 kts 248°
2026-05-06 18:37 39.73636 20.92157 38155 ft 441 kts 248°
2026-05-06 18:37 39.72329 20.88552 37871 ft 441 kts 248°
2026-05-06 18:37 39.71021 20.84946 38267 ft 438 kts 248°
2026-05-06 18:38 39.68478 20.77643 37981 ft 446 kts 250°
2026-05-06 18:38 39.67233 20.73963 38190 ft 445 kts 250°
2026-05-06 18:38 39.65984 20.70273 38049 ft 448 kts 250°
2026-05-06 18:39 39.63490 20.62929 38128 ft 443 kts 250°
2026-05-06 18:40 39.59736 20.51913 37910 ft 437 kts 250°
2026-05-06 18:40 39.58509 20.48318 38099 ft 439 kts 250°
2026-05-06 18:40 39.57264 20.44674 37955 ft 442 kts 250°
2026-05-06 18:40 39.56017 20.41039 38279 ft 442 kts 250°
2026-05-06 18:41 39.54756 20.37358 37864 ft 449 kts 250°
2026-05-06 18:41 39.53489 20.33664 38308 ft 445 kts 249°
2026-05-06 18:41 39.52232 20.30012 37914 ft 453 kts 249°
2026-05-06 18:41 39.50957 20.26313 38214 ft 445 kts 249°
2026-05-06 18:42 39.49687 20.22618 38001 ft 450 kts 249°
2026-05-06 18:42 39.48420 20.18952 38102 ft 444 kts 249°
2026-05-06 18:42 39.47149 20.15271 38088 ft 448 kts 249°
2026-05-06 18:42 39.45868 20.11572 38240 ft 450 kts 249°
2026-05-06 18:43 39.44622 20.07886 38014 ft 445 kts 253°
2026-05-06 18:43 39.43860 20.04086 37854 ft 433 kts 264°
2026-05-06 18:43 39.43401 20.00250 38191 ft 432 kts 263°
2026-05-06 18:43 39.42892 19.96399 38009 ft 439 kts 263°
2026-05-06 18:44 39.42363 19.92492 38104 ft 440 kts 263°
2026-05-06 18:44 39.41284 19.84627 38079 ft 446 kts 263°
2026-05-06 18:45 39.40196 19.76763 38071 ft 441 kts 263°
2026-05-06 18:45 39.39127 19.68985 38045 ft 437 kts 263°
2026-05-06 18:45 39.38596 19.65096 38367 ft 439 kts 263°
2026-05-06 18:46 39.38054 19.61172 37658 ft 441 kts 262°
2026-05-06 18:46 39.37525 19.57398 38332 ft 424 kts 263°
2026-05-06 18:46 39.36995 19.53617 37888 ft 437 kts 263°
2026-05-06 18:46 39.36452 19.49762 38180 ft 434 kts 263°
2026-05-06 18:47 39.35910 19.45909 38023 ft 441 kts 262°
2026-05-06 18:47 39.34802 19.38083 38121 ft 444 kts 262°
2026-05-06 18:47 39.34237 19.34117 37997 ft 445 kts 262°
2026-05-06 18:48 39.33685 19.30233 38141 ft 443 kts 262°
2026-05-06 18:48 39.33124 19.26302 38031 ft 443 kts 262°
2026-05-06 18:48 39.32567 19.22420 38096 ft 438 kts 262°
2026-05-06 18:49 39.31449 19.14625 38079 ft 443 kts 262°
2026-05-06 18:49 39.30313 19.06774 38050 ft 447 kts 262°
2026-05-06 18:50 39.29102 18.98873 38064 ft 451 kts 257°
2026-05-06 18:50 39.27199 18.91142 38047 ft 453 kts 255°
2026-05-06 18:51 39.25315 18.83408 38066 ft 454 kts 255°
2026-05-06 18:51 39.23412 18.75590 38052 ft 455 kts 255°
2026-05-06 18:52 39.21520 18.67826 38034 ft 455 kts 255°
2026-05-06 18:52 39.19606 18.60015 38033 ft 455 kts 255°
2026-05-06 18:53 39.17703 18.52270 38034 ft 452 kts 255°
2026-05-06 18:53 39.15802 18.44547 38005 ft 453 kts 255°
2026-05-06 18:54 39.13893 18.36832 38009 ft 454 kts 255°
2026-05-06 18:54 39.11970 18.29080 38136 ft 450 kts 254°
2026-05-06 18:54 39.11006 18.25200 37762 ft 456 kts 254°
2026-05-06 18:55 39.10054 18.21386 38248 ft 446 kts 254°
2026-05-06 18:55 39.09097 18.17537 37847 ft 456 kts 254°
2026-05-06 18:55 39.08125 18.13650 38270 ft 448 kts 254°
2026-05-06 18:56 39.06198 18.05952 37617 ft 454 kts 254°
2026-05-06 18:56 39.05249 18.02179 38568 ft 442 kts 254°
2026-05-06 18:56 39.04283 17.98326 37679 ft 458 kts 254°
2026-05-06 18:56 39.03323 17.94525 38286 ft 439 kts 254°
2026-05-06 18:57 39.02381 17.90782 38162 ft 450 kts 254°
2026-05-06 18:57 39.01403 17.86911 38008 ft 451 kts 254°
2026-05-06 18:57 39.00437 17.83089 38229 ft 450 kts 254°
2026-05-06 18:57 38.99466 17.79262 37561 ft 456 kts 254°
2026-05-06 18:58 38.98490 17.75415 38353 ft 443 kts 254°
2026-05-06 18:58 38.97532 17.71644 37772 ft 455 kts 254°
2026-05-06 18:58 38.96546 17.67775 38196 ft 446 kts 254°
2026-05-06 18:58 38.95571 17.63947 37981 ft 453 kts 254°
2026-05-06 18:59 38.94584 17.60082 37981 ft 451 kts 254°
2026-05-06 18:59 38.93613 17.56287 38175 ft 450 kts 254°
2026-05-06 18:59 38.92632 17.52452 37843 ft 454 kts 254°
2026-05-06 18:59 38.91641 17.48595 38180 ft 448 kts 254°
2026-05-06 19:00 38.90667 17.44800 37908 ft 453 kts 254°
2026-05-06 19:00 38.89683 17.40980 38070 ft 446 kts 254°
2026-05-06 19:00 38.88706 17.37186 38004 ft 449 kts 254°
2026-05-06 19:01 38.86737 17.29566 38022 ft 448 kts 253°
2026-05-06 19:01 38.84775 17.21995 38062 ft 446 kts 253°
2026-05-06 19:02 38.82806 17.14421 38076 ft 446 kts 253°
2026-05-06 19:02 38.80825 17.06817 38052 ft 446 kts 253°
2026-05-06 19:03 38.78855 16.99286 38045 ft 447 kts 253°
2026-05-06 19:03 38.76878 16.91748 37974 ft 444 kts 253°
2026-05-06 19:04 38.74894 16.84206 37996 ft 445 kts 253°
2026-05-06 19:04 38.72910 16.76686 37921 ft 442 kts 253°
2026-05-06 19:04 38.71925 16.72958 38045 ft 441 kts 253°
2026-05-06 19:05 38.70931 16.69210 38000 ft 444 kts 253°
2026-05-06 19:05 38.68944 16.61721 38049 ft 442 kts 253°
2026-05-06 19:06 38.66966 16.54292 38000 ft 442 kts 253°
2026-05-06 19:06 38.64974 16.46831 37957 ft 441 kts 253°
2026-05-06 19:07 38.62984 16.39398 38066 ft 442 kts 253°
2026-05-06 19:07 38.60988 16.31968 38236 ft 442 kts 252°
2026-05-06 19:07 38.59985 16.28239 37952 ft 443 kts 252°
2026-05-06 19:08 38.58986 16.24536 37827 ft 437 kts 252°
2026-05-06 19:08 38.57998 16.20873 38118 ft 435 kts 252°
2026-05-06 19:08 38.56996 16.17162 38075 ft 442 kts 252°
2026-05-06 19:08 38.55988 16.13441 37973 ft 443 kts 252°
2026-05-06 19:09 38.54977 16.09714 38148 ft 441 kts 252°
2026-05-06 19:09 38.53962 16.05964 37962 ft 443 kts 252°
2026-05-06 19:09 38.52959 16.02289 38181 ft 435 kts 252°
2026-05-06 19:09 38.51960 15.98617 37983 ft 441 kts 252°
2026-05-06 19:10 38.50950 15.94906 37962 ft 437 kts 252°
2026-05-06 19:10 38.49939 15.91208 38087 ft 437 kts 252°
2026-05-06 19:10 38.48932 15.87522 37948 ft 439 kts 252°
2026-05-06 19:11 38.46927 15.80202 37994 ft 438 kts 252°
2026-05-06 19:11 38.44914 15.72881 38007 ft 434 kts 252°
2026-05-06 19:12 38.42917 15.65633 38073 ft 434 kts 252°
2026-05-06 19:12 38.41903 15.61963 37969 ft 436 kts 252°
2026-05-06 19:12 38.40899 15.58330 37967 ft 435 kts 252°
2026-05-06 19:13 38.38883 15.51061 37983 ft 432 kts 252°
2026-05-06 19:13 38.37877 15.47435 38169 ft 428 kts 252°
2026-05-06 19:13 38.36874 15.43823 37929 ft 435 kts 252°
2026-05-06 19:13 38.35861 15.40191 38046 ft 430 kts 252°
2026-05-06 19:14 38.34852 15.36572 38030 ft 433 kts 252°
2026-05-06 19:14 38.32834 15.29344 37997 ft 432 kts 251°
2026-05-06 19:15 38.30814 15.22145 38028 ft 430 kts 252°
2026-05-06 19:15 38.28792 15.14945 37966 ft 426 kts 252°
2026-05-06 19:16 38.26785 15.07822 38185 ft 429 kts 252°
2026-05-06 19:16 38.25780 15.04260 37917 ft 430 kts 252°
2026-05-06 19:16 38.24768 15.00676 38086 ft 429 kts 252°
2026-05-06 19:16 38.23750 14.97080 37900 ft 431 kts 252°
2026-05-06 19:17 38.22725 14.93463 38059 ft 426 kts 252°
2026-05-06 19:17 38.20709 14.86369 38237 ft 425 kts 252°
2026-05-06 19:17 38.19699 14.82819 37979 ft 428 kts 252°
2026-05-06 19:18 38.18692 14.79292 37976 ft 420 kts 252°
2026-05-06 19:18 38.16694 14.72285 38089 ft 420 kts 252°
2026-05-06 19:19 38.14681 14.65251 38022 ft 424 kts 252°
2026-05-06 19:19 38.12660 14.58213 37942 ft 422 kts 253°
2026-05-06 19:20 38.10634 14.51178 37956 ft 421 kts 252°
2026-05-06 19:20 38.08643 14.44276 38005 ft 418 kts 252°
2026-05-06 19:21 38.06629 14.37309 37979 ft 419 kts 252°
2026-05-06 19:21 38.04613 14.30367 37981 ft 416 kts 252°
2026-05-06 19:22 38.02599 14.23434 37951 ft 419 kts 251°
2026-05-06 19:22 38.00567 14.16470 37986 ft 416 kts 252°
2026-05-06 19:23 37.98566 14.09611 37996 ft 416 kts 251°
2026-05-06 19:23 37.96553 14.02743 37983 ft 414 kts 252°
2026-05-06 19:24 37.94535 13.95880 37952 ft 414 kts 252°
2026-05-06 19:24 37.92520 13.89047 37970 ft 412 kts 253°
2026-05-06 19:25 37.90504 13.82205 37971 ft 413 kts 252°
2026-05-06 19:25 37.88480 13.75360 37971 ft 414 kts 252°
2026-05-06 19:26 37.86459 13.68563 37963 ft 411 kts 252°
2026-05-06 19:26 37.84433 13.61750 37955 ft 410 kts 252°
2026-05-06 19:27 37.82428 13.55014 37983 ft 409 kts 252°
2026-05-06 19:27 37.80389 13.48210 37973 ft 410 kts 252°
2026-05-06 19:28 37.78375 13.41487 37973 ft 407 kts 252°
2026-05-06 19:28 37.76365 13.34796 37981 ft 408 kts 252°
2026-05-06 19:29 37.74332 13.28045 37970 ft 409 kts 252°
2026-05-06 19:29 37.72309 13.21345 37968 ft 405 kts 252°
2026-05-06 19:30 37.70302 13.14706 37970 ft 405 kts 252°
2026-05-06 19:30 37.68281 13.08038 37959 ft 405 kts 252°
2026-05-06 19:31 37.66251 13.01368 37939 ft 404 kts 252°
2026-05-06 19:31 37.63224 12.91443 37931 ft 405 kts 252°
2026-05-06 19:32 37.61180 12.84766 37931 ft 406 kts 252°
2026-05-06 19:32 37.59157 12.78161 37920 ft 402 kts 252°
2026-05-06 19:33 37.57132 12.71570 37917 ft 402 kts 252°
2026-05-06 19:33 37.55092 12.64947 37923 ft 404 kts 252°
2026-05-06 19:34 37.53055 12.58348 37915 ft 401 kts 253°
2026-05-06 19:34 37.51035 12.51827 37908 ft 399 kts 253°
2026-05-06 19:35 37.49012 12.45301 37911 ft 399 kts 252°
2026-05-06 19:35 37.46971 12.38735 37906 ft 398 kts 252°
2026-05-06 19:36 37.44949 12.32257 37927 ft 398 kts 252°
2026-05-06 19:36 37.42922 12.25759 37909 ft 398 kts 252°
2026-05-06 19:37 37.40886 12.19257 37907 ft 397 kts 252°
2026-05-06 19:37 37.38861 12.12803 37904 ft 396 kts 252°
2026-05-06 19:38 37.36820 12.06312 37907 ft 397 kts 252°
2026-05-06 19:38 37.34789 11.99867 37907 ft 397 kts 252°
2026-05-06 19:39 37.32756 11.93436 37908 ft 396 kts 252°
2026-05-06 19:39 37.30705 11.86960 37910 ft 396 kts 251°
2026-05-06 19:40 37.28672 11.80559 37902 ft 393 kts 252°
2026-05-06 19:40 37.26641 11.74172 37904 ft 393 kts 252°
2026-05-06 19:41 37.24615 11.67818 37905 ft 391 kts 251°
2026-05-06 19:41 37.22590 11.61473 37909 ft 392 kts 252°
2026-05-06 19:42 37.20544 11.55094 37897 ft 392 kts 252°
2026-05-06 19:42 37.18110 11.48940 37877 ft 400 kts 238°
2026-05-06 19:43 37.14391 11.43650 37880 ft 403 kts 235°
2026-05-06 19:43 37.10641 11.38384 37907 ft 401 kts 235°
2026-05-06 19:44 37.06917 11.33172 37908 ft 401 kts 234°
2026-05-06 19:44 37.03165 11.27925 37883 ft 402 kts 236°
2026-05-06 19:45 36.99439 11.22717 37903 ft 401 kts 235°
2026-05-06 19:45 36.95707 11.17514 37897 ft 399 kts 235°
2026-05-06 19:46 36.91964 11.12301 37886 ft 401 kts 236°
2026-05-06 19:46 36.89359 11.06387 37898 ft 382 kts 259°
2026-05-06 19:47 36.89022 10.99779 37907 ft 381 kts 267°
2026-05-06 19:47 36.88748 10.93140 37917 ft 384 kts 266°
2026-05-06 19:48 36.88433 10.86484 37891 ft 381 kts 266°
2026-05-06 19:48 36.88104 10.79840 37894 ft 380 kts 266°
2026-05-06 19:49 36.87770 10.73231 37899 ft 381 kts 266°
2026-05-06 19:49 36.87438 10.66633 37891 ft 381 kts 266°
2026-05-06 19:50 36.87098 10.60010 37905 ft 379 kts 266°
2026-05-06 19:50 36.86758 10.53429 37899 ft 380 kts 266°
2026-05-06 19:51 36.86411 10.46834 37903 ft 379 kts 266°
2026-05-06 19:51 36.86059 10.40214 37891 ft 378 kts 266°
2026-05-06 19:52 36.85704 10.33629 37917 ft 380 kts 265°
2026-05-06 19:52 36.85349 10.27004 37919 ft 380 kts 266°
2026-05-06 19:53 36.85083 10.20415 37927 ft 380 kts 268°
2026-05-06 19:53 36.85003 10.13806 37918 ft 379 kts 268°
2026-05-06 19:54 36.84906 10.07174 37906 ft 379 kts 267°
2026-05-06 19:54 36.84809 10.00596 37894 ft 377 kts 267°
2026-05-06 19:55 36.84703 9.94009 37917 ft 377 kts 267°
2026-05-06 19:55 36.84597 9.87474 37914 ft 375 kts 267°
2026-05-06 19:56 36.84482 9.80912 37933 ft 376 kts 268°
2026-05-06 19:56 36.84367 9.74377 37932 ft 376 kts 268°
2026-05-06 19:57 36.84251 9.67811 37904 ft 376 kts 267°
2026-05-06 19:57 36.84127 9.61275 37910 ft 373 kts 268°
2026-05-06 19:58 36.84002 9.54766 37890 ft 375 kts 268°
2026-05-06 19:58 36.83873 9.48207 37905 ft 375 kts 267°
2026-05-06 19:59 36.83744 9.41695 37934 ft 376 kts 267°
2026-05-06 19:59 36.83601 9.35119 37920 ft 376 kts 267°
2026-05-06 20:00 36.83460 9.28569 37927 ft 374 kts 266°
2026-05-06 20:00 36.83314 9.22073 37936 ft 374 kts 267°
2026-05-06 20:01 36.83163 9.15581 37921 ft 372 kts 267°
2026-05-06 20:01 36.83009 9.09040 37901 ft 375 kts 266°
2026-05-06 20:02 36.82848 9.02536 37911 ft 373 kts 266°
2026-05-06 20:02 36.82722 8.96031 37912 ft 374 kts 269°
2026-05-06 20:03 36.82904 8.89494 37910 ft 373 kts 269°
2026-05-06 20:03 36.83056 8.82990 37905 ft 374 kts 269°
2026-05-06 20:04 36.83202 8.76453 37917 ft 374 kts 269°
2026-05-06 20:04 36.83339 8.70004 37934 ft 371 kts 269°
2026-05-06 20:05 36.83453 8.63511 37916 ft 372 kts 268°
2026-05-06 20:05 36.83449 8.57012 37921 ft 374 kts 268°
2026-05-06 20:06 36.83454 8.50505 37947 ft 371 kts 268°
2026-05-06 20:06 36.83453 8.43991 37943 ft 372 kts 267°
2026-05-06 20:07 36.83444 8.37479 37918 ft 372 kts 268°
2026-05-06 20:07 36.83431 8.30944 37942 ft 372 kts 268°
2026-05-06 20:08 36.83422 8.24460 37962 ft 371 kts 267°
2026-05-06 20:08 36.83405 8.17973 37925 ft 370 kts 268°
2026-05-06 20:09 36.83383 8.11506 37926 ft 371 kts 266°
2026-05-06 20:09 36.83359 8.05007 37905 ft 370 kts 267°
2026-05-06 20:10 36.83333 7.98519 37918 ft 373 kts 267°
2026-05-06 20:10 36.83303 7.92033 37912 ft 371 kts 267°
2026-05-06 20:11 36.83270 7.85553 37892 ft 372 kts 266°
2026-05-06 20:11 36.83220 7.79080 37881 ft 370 kts 266°
2026-05-06 20:12 36.83154 7.72666 37935 ft 369 kts 267°
2026-05-06 20:12 36.83085 7.66229 37914 ft 368 kts 266°
2026-05-06 20:13 36.83012 7.59784 37925 ft 369 kts 267°
2026-05-06 20:13 36.82937 7.53329 37900 ft 370 kts 266°
2026-05-06 20:14 36.82854 7.46904 37934 ft 370 kts 267°
2026-05-06 20:14 36.82769 7.40492 37925 ft 367 kts 267°
2026-05-06 20:15 36.82684 7.34058 37926 ft 369 kts 266°
2026-05-06 20:15 36.82592 7.27628 37942 ft 369 kts 266°
2026-05-06 20:16 36.82500 7.21226 37937 ft 367 kts 266°
2026-05-06 20:16 36.82401 7.14795 37950 ft 366 kts 266°
2026-05-06 20:17 36.82304 7.08417 37939 ft 366 kts 266°
2026-05-06 20:17 36.82197 7.02054 37938 ft 367 kts 266°
2026-05-06 20:18 36.82092 6.95639 37934 ft 366 kts 265°
2026-05-06 20:18 36.81981 6.89291 37931 ft 366 kts 265°
2026-05-06 20:19 36.81865 6.82920 37942 ft 364 kts 266°
2026-05-06 20:19 36.81746 6.76513 37938 ft 367 kts 265°
2026-05-06 20:20 36.81628 6.70123 37936 ft 365 kts 266°
2026-05-06 20:20 36.81507 6.63804 37939 ft 364 kts 266°
2026-05-06 20:21 36.81379 6.57410 37935 ft 365 kts 265°
2026-05-06 20:21 36.81250 6.51056 37923 ft 364 kts 265°
2026-05-06 20:22 36.81113 6.44680 37926 ft 366 kts 266°
2026-05-06 20:22 36.80973 6.38306 37931 ft 365 kts 266°
2026-05-06 20:23 36.80834 6.31950 37938 ft 364 kts 265°
2026-05-06 20:23 36.80688 6.25556 37930 ft 366 kts 265°
2026-05-06 20:24 36.80546 6.19214 37926 ft 364 kts 264°
2026-05-06 20:24 36.80394 6.12861 37957 ft 364 kts 264°
2026-05-06 20:25 36.80237 6.06506 37939 ft 364 kts 265°
2026-05-06 20:25 36.80079 6.00150 37930 ft 364 kts 265°
2026-05-06 20:26 36.79919 5.93776 37926 ft 365 kts 265°
2026-05-06 20:26 36.79741 5.87409 37928 ft 365 kts 262°
2026-05-06 20:27 36.79119 5.81108 37947 ft 362 kts 260°
2026-05-06 20:27 36.78492 5.74864 37932 ft 361 kts 261°
2026-05-06 20:28 36.77859 5.68565 37945 ft 363 kts 260°
2026-05-06 20:28 36.77218 5.62295 37927 ft 363 kts 260°
2026-05-06 20:29 36.76579 5.56004 37934 ft 365 kts 261°
2026-05-06 20:29 36.75938 5.49714 37931 ft 363 kts 261°
2026-05-06 20:30 36.74964 5.40314 37920 ft 363 kts 260°
2026-05-06 20:31 36.74309 5.34002 37929 ft 364 kts 260°
2026-05-06 20:31 36.73652 5.27674 37940 ft 365 kts 260°
2026-05-06 20:32 36.72994 5.21408 37945 ft 363 kts 260°
2026-05-06 20:32 36.72335 5.15128 37933 ft 364 kts 259°
2026-05-06 20:33 36.71665 5.08833 37953 ft 363 kts 260°
2026-05-06 20:33 36.71337 5.02514 37931 ft 363 kts 264°
2026-05-06 20:34 36.71112 4.96190 37960 ft 366 kts 263°
2026-05-06 20:34 36.70871 4.89801 37942 ft 365 kts 264°
2026-05-06 20:35 36.70625 4.83471 37940 ft 363 kts 263°
2026-05-06 20:35 36.70378 4.77135 37930 ft 364 kts 263°
2026-05-06 20:36 36.70125 4.70804 37932 ft 364 kts 263°
2026-05-06 20:36 36.69867 4.64436 37938 ft 365 kts 263°
2026-05-06 20:37 36.69609 4.58064 37943 ft 367 kts 263°
2026-05-06 20:37 36.69345 4.51701 37947 ft 366 kts 263°
2026-05-06 20:38 36.69076 4.45346 37927 ft 365 kts 264°
2026-05-06 20:38 36.68808 4.38981 37955 ft 367 kts 263°
2026-05-06 20:39 36.68532 4.32600 37962 ft 367 kts 263°
2026-05-06 20:39 36.68256 4.26254 37944 ft 364 kts 263°
2026-05-06 20:40 36.67977 4.19910 37944 ft 365 kts 263°
2026-05-06 20:40 36.67694 4.13546 37930 ft 365 kts 263°
2026-05-06 20:41 36.67406 4.07146 37949 ft 369 kts 263°
2026-05-06 20:41 36.67115 4.00728 37942 ft 367 kts 263°
2026-05-06 20:42 36.66820 3.94369 37933 ft 366 kts 263°
2026-05-06 20:42 36.66522 3.88001 37923 ft 367 kts 263°
2026-05-06 20:43 36.66215 3.81592 37942 ft 370 kts 264°
2026-05-06 20:43 36.65914 3.75174 37915 ft 368 kts 263°
2026-05-06 20:44 36.65603 3.68784 37945 ft 368 kts 263°
2026-05-06 20:44 36.65294 3.62476 37911 ft 362 kts 263°
2026-05-06 20:45 36.65393 3.56094 37927 ft 373 kts 272°
2026-05-06 20:45 36.66137 3.49671 37946 ft 375 kts 272°
2026-05-06 20:46 36.66830 3.43200 37936 ft 376 kts 271°
2026-05-06 20:46 36.67521 3.36685 37940 ft 378 kts 271°
2026-05-06 20:47 36.68201 3.30178 38070 ft 377 kts 272°
2026-05-06 20:47 36.68550 3.26867 37966 ft 381 kts 271°
2026-05-06 20:47 36.68882 3.23645 37897 ft 373 kts 272°
2026-05-06 20:47 36.69080 3.20419 38011 ft 368 kts 263°
2026-05-06 20:48 36.68786 3.17217 37720 ft 367 kts 259°
2026-05-06 20:48 36.68492 3.14062 37999 ft 365 kts 261°
2026-05-06 20:48 36.68214 3.10893 37942 ft 371 kts 261°
2026-05-06 20:49 36.67659 3.04422 38051 ft 376 kts 261°
2026-05-06 20:49 36.67386 3.01168 37657 ft 375 kts 261°
2026-05-06 20:49 36.67108 2.97930 38185 ft 369 kts 261°
2026-05-06 20:49 36.66827 2.94676 37962 ft 378 kts 261°
2026-05-06 20:50 36.66556 2.91461 37792 ft 373 kts 260°
2026-05-06 20:50 36.66273 2.88217 37983 ft 372 kts 261°
2026-05-06 20:50 36.65997 2.84980 37912 ft 375 kts 261°
2026-05-06 20:51 36.65436 2.78480 37925 ft 378 kts 261°
2026-05-06 20:51 36.65151 2.75219 38108 ft 375 kts 261°
2026-05-06 20:51 36.64868 2.71987 37797 ft 371 kts 261°
2026-05-06 20:51 36.64582 2.68772 37976 ft 370 kts 261°
2026-05-06 20:52 36.64301 2.65543 38069 ft 374 kts 261°
2026-05-06 20:52 36.64017 2.62316 37821 ft 376 kts 261°
2026-05-06 20:52 36.63727 2.59045 37961 ft 375 kts 261°
2026-05-06 20:53 36.63148 2.52542 37912 ft 378 kts 261°
2026-05-06 20:53 36.62565 2.46009 37903 ft 375 kts 260°
2026-05-06 20:54 36.61977 2.39501 37907 ft 377 kts 261°
2026-05-06 20:54 36.61383 2.32942 37929 ft 380 kts 261°
2026-05-06 20:55 36.60786 2.26389 37848 ft 375 kts 260°
2026-05-06 20:55 36.60489 2.23128 38000 ft 375 kts 260°
2026-05-06 20:55 36.60178 2.19902 37812 ft 377 kts 257°
2026-05-06 20:55 36.59376 2.16817 37963 ft 372 kts 246°
2026-05-06 20:56 36.58302 2.13813 37927 ft 375 kts 247°
2026-05-06 20:56 36.56239 2.07763 37932 ft 379 kts 247°
2026-05-06 20:56 36.55209 2.04731 38061 ft 379 kts 248°
2026-05-06 20:57 36.54189 2.01709 37824 ft 370 kts 247°
2026-05-06 20:57 36.53182 1.98747 37957 ft 364 kts 247°
2026-05-06 20:57 36.52200 1.95852 38063 ft 370 kts 248°
2026-05-06 20:57 36.51175 1.92835 37571 ft 373 kts 247°
2026-05-06 20:58 36.50169 1.89866 38117 ft 366 kts 247°
2026-05-06 20:58 36.49160 1.86905 37790 ft 375 kts 247°
2026-05-06 20:58 36.48146 1.83931 37985 ft 372 kts 248°
2026-05-06 20:59 36.46104 1.77936 37890 ft 377 kts 248°
2026-05-06 20:59 36.44031 1.71867 37884 ft 379 kts 247°
2026-05-06 20:59 36.42999 1.68860 38125 ft 379 kts 248°
2026-05-06 21:00 36.41956 1.65807 37629 ft 374 kts 247°
2026-05-06 21:00 36.40946 1.62867 38006 ft 363 kts 247°
2026-05-06 21:00 36.39945 1.59953 37891 ft 370 kts 247°
2026-05-06 21:01 36.37904 1.54012 37994 ft 372 kts 247°
2026-05-06 21:01 36.36886 1.51054 37840 ft 375 kts 247°
2026-05-06 21:01 36.35867 1.48035 37967 ft 374 kts 247°
2026-05-06 21:02 36.33849 1.42021 37914 ft 377 kts 248°
2026-05-06 21:02 36.31817 1.35963 37909 ft 377 kts 248°
2026-05-06 21:03 36.29804 1.29987 37890 ft 362 kts 247°
2026-05-06 21:03 36.28833 1.27108 38010 ft 360 kts 248°
2026-05-06 21:03 36.27868 1.24228 37885 ft 366 kts 247°
2026-05-06 21:04 36.25870 1.18323 37934 ft 370 kts 247°
2026-05-06 21:04 36.23859 1.12383 37923 ft 373 kts 247°
2026-05-06 21:05 36.21825 1.06385 37923 ft 374 kts 247°
2026-05-06 21:05 36.19811 1.00452 37925 ft 367 kts 246°
2026-05-06 21:06 36.17803 0.94549 37911 ft 369 kts 247°
2026-05-06 21:06 36.15784 0.88633 38122 ft 370 kts 246°
2026-05-06 21:06 36.14769 0.85664 37740 ft 365 kts 247°
2026-05-06 21:07 36.13789 0.82786 38000 ft 362 kts 247°
2026-05-06 21:07 36.12790 0.79880 37857 ft 368 kts 246°
2026-05-06 21:07 36.11788 0.76947 37916 ft 369 kts 247°
2026-05-06 21:08 36.09762 0.71042 37894 ft 372 kts 247°
2026-05-06 21:08 36.07711 0.65077 37885 ft 374 kts 247°
2026-05-06 21:09 36.05660 0.59122 37884 ft 373 kts 247°
2026-05-06 21:09 36.03632 0.53250 37882 ft 368 kts 246°
2026-05-06 21:10 36.01608 0.47392 37873 ft 367 kts 246°
2026-05-06 21:10 35.99585 0.41547 37878 ft 370 kts 247°
2026-05-06 21:11 35.97529 0.35630 37875 ft 371 kts 247°
2026-05-06 21:11 35.95493 0.29779 37899 ft 370 kts 246°
2026-05-06 21:12 35.93467 0.23951 37900 ft 366 kts 246°
2026-05-06 21:12 35.91423 0.18098 37904 ft 370 kts 246°
2026-05-06 21:12 35.90406 0.15191 38100 ft 367 kts 245°
2026-05-06 21:13 35.89373 0.12267 37842 ft 366 kts 245°
2026-05-06 21:13 35.87297 0.06457 37870 ft 369 kts 245°
2026-05-06 21:14 35.85226 0.00673 37896 ft 368 kts 245°
2026-05-06 21:14 35.83133 -0.05162 37881 ft 368 kts 246°
2026-05-06 21:15 35.81054 -0.10955 37879 ft 368 kts 245°
2026-05-06 21:15 35.78963 -0.16758 37908 ft 368 kts 246°
2026-05-06 21:16 35.76856 -0.22593 37891 ft 368 kts 245°
2026-05-06 21:16 35.74774 -0.28363 37885 ft 368 kts 245°
2026-05-06 21:17 35.72657 -0.34206 37914 ft 369 kts 246°
2026-05-06 21:17 35.70555 -0.39995 37910 ft 367 kts 246°
2026-05-06 21:18 35.68445 -0.45807 37920 ft 370 kts 245°
2026-05-06 21:18 35.66335 -0.51601 37910 ft 368 kts 245°
2026-05-06 21:19 35.64228 -0.57374 37897 ft 367 kts 245°
2026-05-06 21:19 35.62109 -0.63175 37898 ft 369 kts 245°
2026-05-06 21:20 35.59390 -0.68531 37953 ft 369 kts 233°
2026-05-06 21:20 35.56172 -0.73528 37922 ft 369 kts 233°
2026-05-06 21:21 35.52970 -0.78556 37916 ft 370 kts 234°
2026-05-06 21:21 35.49784 -0.83561 37910 ft 370 kts 234°
2026-05-06 21:22 35.46590 -0.88570 37911 ft 370 kts 234°
2026-05-06 21:22 35.43395 -0.93579 37911 ft 369 kts 233°
2026-05-06 21:23 35.40207 -0.98567 37911 ft 370 kts 233°
2026-05-06 21:23 35.37007 -1.03565 37910 ft 370 kts 233°
2026-05-06 21:24 35.33773 -1.08609 37912 ft 372 kts 234°
2026-05-06 21:24 35.30576 -1.13593 37908 ft 370 kts 233°
2026-05-06 21:25 35.27343 -1.18618 37913 ft 371 kts 233°
2026-05-06 21:25 35.24135 -1.23605 37912 ft 369 kts 233°
2026-05-06 21:26 35.20940 -1.28563 37911 ft 368 kts 233°
2026-05-06 21:26 35.17734 -1.33525 37934 ft 370 kts 234°
2026-05-06 21:27 35.14513 -1.38511 37920 ft 370 kts 233°
2026-05-06 21:27 35.11279 -1.43499 37924 ft 372 kts 233°
2026-05-06 21:28 35.08051 -1.48481 37929 ft 371 kts 233°
2026-05-06 21:28 35.04814 -1.53466 37925 ft 370 kts 233°
2026-05-06 21:29 35.01579 -1.58439 37925 ft 370 kts 233°
2026-05-06 21:29 34.98357 -1.63390 37927 ft 370 kts 233°
2026-05-06 21:30 34.95126 -1.68346 37963 ft 370 kts 233°
2026-05-06 21:30 34.91893 -1.73292 37948 ft 370 kts 233°
2026-05-06 21:31 34.88663 -1.78241 37975 ft 371 kts 232°
2026-05-06 21:31 34.85418 -1.83195 37979 ft 371 kts 232°
2026-05-06 21:32 34.82109 -1.88070 37977 ft 370 kts 231°
2026-05-06 21:32 34.77220 -1.95475 37952 ft 370 kts 240°
2026-05-06 21:33 34.76324 -1.98476 38007 ft 373 kts 251°
2026-05-06 21:33 34.75599 -2.01519 37963 ft 374 kts 249°
2026-05-06 21:33 34.74032 -2.07632 37985 ft 375 kts 249°
2026-05-06 21:34 34.72449 -2.13678 37979 ft 374 kts 249°
2026-05-06 21:34 34.70847 -2.19778 37937 ft 374 kts 249°
2026-05-06 21:35 34.69243 -2.25856 37939 ft 377 kts 249°
2026-05-06 21:35 34.67625 -2.31979 37939 ft 377 kts 249°
2026-05-06 21:36 34.66005 -2.38088 37951 ft 378 kts 249°
2026-05-06 21:36 34.64391 -2.44165 37936 ft 376 kts 249°
2026-05-06 21:37 34.62767 -2.50261 37935 ft 376 kts 249°
2026-05-06 21:37 34.61133 -2.56391 37929 ft 378 kts 248°
2026-05-06 21:38 34.59486 -2.62499 37921 ft 377 kts 248°
2026-05-06 21:38 34.57828 -2.68558 37942 ft 376 kts 248°
2026-05-06 21:39 34.56160 -2.74662 37935 ft 377 kts 248°
2026-05-06 21:39 34.54508 -2.80753 37931 ft 377 kts 248°
2026-05-06 21:40 34.52858 -2.86853 38084 ft 377 kts 248°
2026-05-06 21:40 34.52027 -2.89922 37807 ft 377 kts 248°
2026-05-06 21:40 34.51201 -2.92965 37885 ft 377 kts 248°
2026-05-06 21:41 34.49548 -2.99038 37787 ft 376 kts 248°
2026-05-06 21:41 34.48719 -3.02084 38049 ft 376 kts 248°
2026-05-06 21:41 34.47880 -3.05162 37788 ft 382 kts 248°
2026-05-06 21:42 34.47046 -3.08203 38024 ft 380 kts 248°
2026-05-06 21:42 34.46202 -3.11305 37864 ft 385 kts 248°
2026-05-06 21:42 34.44508 -3.17483 38136 ft 383 kts 248°
2026-05-06 21:43 34.43661 -3.20579 37806 ft 380 kts 248°
2026-05-06 21:43 34.42833 -3.23598 38012 ft 378 kts 248°
2026-05-06 21:43 34.41988 -3.26662 37861 ft 382 kts 248°
2026-05-06 21:43 34.41141 -3.29753 37961 ft 383 kts 248°
2026-05-06 21:44 34.39422 -3.35979 37948 ft 387 kts 248°
2026-05-06 21:44 34.37716 -3.42163 37944 ft 385 kts 248°
2026-05-06 21:45 34.36008 -3.48353 37929 ft 384 kts 248°
2026-05-06 21:45 34.34322 -3.54580 37928 ft 385 kts 248°
2026-05-06 21:46 34.32649 -3.60762 37915 ft 385 kts 248°
2026-05-06 21:46 34.30965 -3.66961 37949 ft 386 kts 248°
2026-05-06 21:47 34.29273 -3.73189 37931 ft 385 kts 248°
2026-05-06 21:47 34.27580 -3.79403 37945 ft 388 kts 248°
2026-05-06 21:48 34.25878 -3.85619 37934 ft 386 kts 248°
2026-05-06 21:48 34.24175 -3.91835 37939 ft 388 kts 248°
2026-05-06 21:49 34.22457 -3.98094 37935 ft 386 kts 248°
2026-05-06 21:49 34.20752 -4.04295 37921 ft 388 kts 248°
2026-05-06 21:50 34.19017 -4.10574 37935 ft 391 kts 248°
2026-05-06 21:50 34.17287 -4.16840 37942 ft 388 kts 248°
2026-05-06 21:51 34.15511 -4.23037 37946 ft 388 kts 248°
2026-05-06 21:51 34.13731 -4.29234 37951 ft 388 kts 247°
2026-05-06 21:52 34.11938 -4.35470 37929 ft 388 kts 247°
2026-05-06 21:52 34.10156 -4.41652 37898 ft 385 kts 247°
2026-05-06 21:53 34.08362 -4.47846 37919 ft 388 kts 247°
2026-05-06 21:53 34.06569 -4.54053 37915 ft 387 kts 247°
2026-05-06 21:54 34.04774 -4.60231 37907 ft 390 kts 247°
2026-05-06 21:54 34.02962 -4.66452 37955 ft 389 kts 247°
2026-05-06 21:55 34.01167 -4.72616 37929 ft 388 kts 247°
2026-05-06 21:55 33.99356 -4.78812 37920 ft 387 kts 247°
2026-05-06 21:56 33.97549 -4.84986 37966 ft 389 kts 246°
2026-05-06 21:56 33.95733 -4.91172 37967 ft 389 kts 246°
2026-05-06 21:57 33.93907 -4.97381 37962 ft 389 kts 246°
2026-05-06 21:57 33.92342 -5.03707 37946 ft 394 kts 255°
2026-05-06 21:58 33.91938 -5.06918 37983 ft 377 kts 255°
2026-05-06 21:58 33.91515 -5.10008 37931 ft 366 kts 255°
2026-05-06 21:58 33.90650 -5.16120 37953 ft 371 kts 253°
2026-05-06 21:59 33.89757 -5.22361 37972 ft 378 kts 255°
2026-05-06 21:59 33.88862 -5.28644 37950 ft 375 kts 255°
2026-05-06 22:00 33.87961 -5.34922 37959 ft 380 kts 254°
2026-05-06 22:00 33.87051 -5.41240 37932 ft 380 kts 255°
2026-05-06 22:01 33.86129 -5.47597 37949 ft 386 kts 255°
2026-05-06 22:01 33.85204 -5.53991 37801 ft 384 kts 255°
2026-05-06 22:02 33.84740 -5.57184 37420 ft 386 kts 255°
2026-05-06 22:02 33.84271 -5.60396 37116 ft 387 kts 255°
2026-05-06 22:02 33.83807 -5.63573 36820 ft 381 kts 255°
2026-05-06 22:02 33.83342 -5.66758 36527 ft 381 kts 254°
2026-05-06 22:03 33.82883 -5.69888 36268 ft 378 kts 254°
2026-05-06 22:03 33.82422 -5.73033 36003 ft 378 kts 254°
2026-05-06 22:03 33.81956 -5.76187 35769 ft 380 kts 254°
2026-05-06 22:03 33.81489 -5.79333 35556 ft 383 kts 254°
2026-05-06 22:04 33.81016 -5.82531 35296 ft 383 kts 255°
2026-05-06 22:04 33.80541 -5.85742 34608 ft 391 kts 254°
2026-05-06 22:04 33.80069 -5.88936 34131 ft 388 kts 254°
2026-05-06 22:04 33.79592 -5.92136 33430 ft 390 kts 255°
2026-05-06 22:05 33.79107 -5.95383 32714 ft 393 kts 255°
2026-05-06 22:05 33.78616 -5.98649 31934 ft 397 kts 256°
2026-05-06 22:05 33.78125 -6.01951 31245 ft 399 kts 256°
2026-05-06 22:05 33.77628 -6.05255 30571 ft 401 kts 257°
2026-05-06 22:06 33.77134 -6.08574 30052 ft 398 kts 257°
2026-05-06 22:06 33.76640 -6.11860 29442 ft 397 kts 256°
2026-05-06 22:06 33.76144 -6.15138 28943 ft 394 kts 257°
2026-05-06 22:06 33.75650 -6.18425 28301 ft 394 kts 257°
2026-05-06 22:07 33.75167 -6.21628 27727 ft 392 kts 257°
2026-05-06 22:07 33.74672 -6.24888 27123 ft 390 kts 257°
2026-05-06 22:07 33.74188 -6.28076 26654 ft 385 kts 257°
2026-05-06 22:07 33.73704 -6.31257 26140 ft 382 kts 257°
2026-05-06 22:08 33.73225 -6.34428 25683 ft 377 kts 257°
2026-05-06 22:08 33.72768 -6.37485 25207 ft 373 kts 257°
2026-05-06 22:08 33.72308 -6.40540 24749 ft 369 kts 257°
2026-05-06 22:08 33.71851 -6.43579 24236 ft 366 kts 257°
2026-05-06 22:09 33.71397 -6.46589 23735 ft 363 kts 258°
2026-05-06 22:09 33.70950 -6.49547 23191 ft 361 kts 258°
2026-05-06 22:09 33.70504 -6.52505 22681 ft 358 kts 258°
2026-05-06 22:09 33.70058 -6.55451 22141 ft 355 kts 258°
2026-05-06 22:10 33.69612 -6.58375 21624 ft 352 kts 257°
2026-05-06 22:10 33.69160 -6.61250 21136 ft 349 kts 258°
2026-05-06 22:10 33.68713 -6.64093 20639 ft 345 kts 258°
2026-05-06 22:10 33.68272 -6.66910 20178 ft 341 kts 257°
2026-05-06 22:11 33.67834 -6.69694 19727 ft 338 kts 257°
2026-05-06 22:11 33.67394 -6.72488 19251 ft 334 kts 257°
2026-05-06 22:11 33.66960 -6.75229 18798 ft 334 kts 257°
2026-05-06 22:11 33.66532 -6.77935 18355 ft 333 kts 257°
2026-05-06 22:12 33.66098 -6.80679 17904 ft 331 kts 257°
2026-05-06 22:12 33.65669 -6.83392 17450 ft 329 kts 257°
2026-05-06 22:12 33.65212 -6.86075 16998 ft 327 kts 252°
2026-05-06 22:12 33.64179 -6.88475 16550 ft 324 kts 231°
2026-05-06 22:13 33.62457 -6.90205 16030 ft 325 kts 210°
2026-05-06 22:13 33.60336 -6.91136 15578 ft 324 kts 200°
2026-05-06 22:13 33.58166 -6.91974 15113 ft 325 kts 200°
2026-05-06 22:13 33.56019 -6.92813 14641 ft 323 kts 200°
2026-05-06 22:14 33.53892 -6.93649 14167 ft 321 kts 200°
2026-05-06 22:14 33.51764 -6.94490 13697 ft 319 kts 200°
2026-05-06 22:14 33.49678 -6.95312 13235 ft 317 kts 200°
2026-05-06 22:14 33.47590 -6.96137 12756 ft 315 kts 200°
2026-05-06 22:15 33.45501 -6.96961 12300 ft 313 kts 200°
2026-05-06 22:15 33.43430 -6.97778 11852 ft 312 kts 200°
2026-05-06 22:15 33.41381 -6.98585 11425 ft 310 kts 200°
2026-05-06 22:15 33.39331 -6.99395 11015 ft 308 kts 200°
2026-05-06 22:16 33.37281 -7.00202 10624 ft 306 kts 200°
2026-05-06 22:16 33.35263 -7.00999 10480 ft 303 kts 200°
2026-05-06 22:16 33.33259 -7.01789 10399 ft 306 kts 200°
2026-05-06 22:16 33.31235 -7.02585 10294 ft 305 kts 200°
2026-05-06 22:17 33.29212 -7.03380 10185 ft 300 kts 200°
2026-05-06 22:17 33.27261 -7.04146 10082 ft 288 kts 201°
2026-05-06 22:17 33.25392 -7.04880 9973 ft 277 kts 201°
2026-05-06 22:17 33.23605 -7.05582 9817 ft 269 kts 201°
2026-05-06 22:18 33.21811 -7.06287 9584 ft 264 kts 200°
2026-05-06 22:18 33.20106 -7.06965 9516 ft 252 kts 204°
2026-05-06 22:18 33.18722 -7.08118 9429 ft 243 kts 232°
2026-05-06 22:18 33.17977 -7.09942 9188 ft 246 kts 257°
2026-05-06 22:19 33.17648 -7.11922 8936 ft 245 kts 257°
2026-05-06 22:19 33.17324 -7.13910 8667 ft 244 kts 258°
2026-05-06 22:19 33.17012 -7.15895 8403 ft 243 kts 258°
2026-05-06 22:19 33.16702 -7.17877 8151 ft 242 kts 258°
2026-05-06 22:20 33.16393 -7.19865 7906 ft 241 kts 258°
2026-05-06 22:20 33.16090 -7.21808 7669 ft 241 kts 258°
2026-05-06 22:20 33.15784 -7.23775 7424 ft 240 kts 258°
2026-05-06 22:20 33.15480 -7.25725 7189 ft 239 kts 258°
2026-05-06 22:21 33.15174 -7.27684 6948 ft 238 kts 258°
2026-05-06 22:21 33.14872 -7.29616 6711 ft 238 kts 258°
2026-05-06 22:21 33.14568 -7.31549 6470 ft 238 kts 258°
2026-05-06 22:21 33.14267 -7.33477 6228 ft 238 kts 258°
2026-05-06 22:22 33.13960 -7.35426 5984 ft 240 kts 258°
2026-05-06 22:22 33.13652 -7.37381 5737 ft 239 kts 259°
2026-05-06 22:22 33.13341 -7.39351 5468 ft 240 kts 259°
2026-05-06 22:22 33.13035 -7.41301 5203 ft 240 kts 260°
2026-05-06 22:23 33.12726 -7.43264 4928 ft 241 kts 260°
2026-05-06 22:23 33.12418 -7.45218 4651 ft 241 kts 261°
2026-05-06 22:23 33.12111 -7.47163 4603 ft 232 kts 261°
2026-05-06 22:23 33.12089 -7.49041 4508 ft 221 kts 288°
2026-05-06 22:24 33.12838 -7.50589 4460 ft 216 kts 311°
2026-05-06 22:24 33.14079 -7.51527 4368 ft 210 kts 345°
2026-05-06 22:24 33.15446 -7.51947 4289 ft 198 kts 344°
2026-05-06 22:24 33.16744 -7.52392 4190 ft 187 kts 344°
2026-05-06 22:25 33.17972 -7.52812 4026 ft 179 kts 344°
2026-05-06 22:25 33.19129 -7.53208 3919 ft 166 kts 345°
2026-05-06 22:25 33.20226 -7.53577 3680 ft 160 kts 345°
2026-05-06 22:25 33.21273 -7.53934 3499 ft 147 kts 345°
2026-05-06 22:26 33.22229 -7.54261 3273 ft 140 kts 345°
2026-05-06 22:26 33.23154 -7.54577 3099 ft 134 kts 346°
2026-05-06 22:26 33.24050 -7.54884 2909 ft 133 kts 346°
2026-05-06 22:26 33.24946 -7.55189 2736 ft 132 kts 346°
2026-05-06 22:27 33.25829 -7.55488 2559 ft 132 kts 346°
2026-05-06 22:27 33.26720 -7.55789 2381 ft 133 kts 346°
2026-05-06 22:27 33.27622 -7.56090 2189 ft 132 kts 346°
2026-05-06 22:27 33.28515 -7.56377 1997 ft 133 kts 346°
2026-05-06 22:28 33.29404 -7.56667 1842 ft 132 kts 345°
2026-05-06 22:28 33.30286 -7.56990 1650 ft 132 kts 343°
2026-05-06 22:28 33.31167 -7.57297 1480 ft 131 kts 345°
2026-05-06 22:28 33.32061 -7.57602 1296 ft 132 kts 345°
2026-05-06 22:29 33.32951 -7.57916 1128 ft 132 kts 344°
2026-05-06 22:29 33.33846 -7.58215 975 ft 133 kts 346°
2026-05-06 22:29 33.34737 -7.58522 781 ft 133 kts 344°
2026-05-06 22:29 33.35622 -7.58816 660 ft 120 kts 342°
2026-05-06 22:30 33.36237 -7.59036 656 ft 61 kts 343°
2026-05-06 22:30 33.36593 -7.59157 653 ft 53 kts 345°
2026-05-06 22:30 33.36937 -7.59276 653 ft 48 kts 344°
2026-05-06 22:30 33.37199 -7.59321 653 ft 35 kts
2026-05-06 22:31 33.37432 -7.59257 653 ft 32 kts 14°
2026-05-06 22:31 33.37647 -7.59194 653 ft 30 kts 14°
2026-05-06 22:31 33.37807 -7.59113 650 ft 24 kts 56°
2026-05-06 22:31 33.37859 -7.58928 649 ft 23 kts 75°
2026-05-06 22:32 33.37900 -7.58748 650 ft 18 kts 74°
2026-05-06 22:32 33.37893 -7.58623 650 ft 15 kts 125°
2026-05-06 22:32 33.37825 -7.58523 650 ft 16 kts 135°
2026-05-06 22:32 33.37727 -7.58463 651 ft 16 kts 166°
2026-05-06 22:33 33.37616 -7.58435 651 ft 17 kts 171°
2026-05-06 22:33 33.37490 -7.58401 653 ft 18 kts 165°
2026-05-06 22:33 33.37364 -7.58357 653 ft 18 kts 164°
2026-05-06 22:33 33.37284 -7.58331 653 ft 8 kts 165°
2026-05-06 22:34 33.37239 -7.58308 653 ft 5 kts 116°
2026-05-06 22:34 33.37241 -7.58265 653 ft 4 kts 66°
2026-05-06 22:34 33.37252 -7.58239 653 ft 2 kts 71°
2026-05-06 22:34 33.37254 -7.58229 654 ft 0 kts 75°